WLF456 KLAS-KDEN

Flight info

Callsign WLF456
Flight time 1h 28m
Altitude 37000
Route GIDGT3 TUKRR BUMMP SSKII4
Aircraft A320/M-SDE3FGHIRWY/LB1

Departure

Time 2026-05-07 16:57
Airport Harry Reid International Airport (KLAS)

Arrival

Time 2026-05-07 18:25
Airport Denver International Airport (KDEN)
Time Latitude Longitude Altitude Speed Heading
2026-05-07 16:33 36.07992 -115.13960 2094 ft 0 kts 352°
2026-05-07 16:47 36.07977 -115.13957 2093 ft 4 kts 352°
2026-05-07 16:48 36.07950 -115.13953 2093 ft 4 kts 352°
2026-05-07 16:48 36.07927 -115.13948 2093 ft 4 kts 333°
2026-05-07 16:48 36.07912 -115.13927 2093 ft 4 kts 278°
2026-05-07 16:48 36.07910 -115.13908 2093 ft 1 kts 269°
2026-05-07 16:49 36.07910 -115.13906 2093 ft 0 kts 269°
2026-05-07 16:51 36.07910 -115.13909 2093 ft 1 kts 270°
2026-05-07 16:51 36.07905 -115.13928 2093 ft 4 kts 244°
2026-05-07 16:52 36.07877 -115.13951 2093 ft 6 kts 193°
2026-05-07 16:52 36.07831 -115.13921 2093 ft 9 kts 123°
2026-05-07 16:52 36.07828 -115.13824 2093 ft 13 kts 89°
2026-05-07 16:52 36.07829 -115.13700 2092 ft 15 kts 89°
2026-05-07 16:53 36.07829 -115.13558 2091 ft 18 kts 90°
2026-05-07 16:53 36.07828 -115.13397 2090 ft 20 kts 89°
2026-05-07 16:53 36.07830 -115.13210 2086 ft 24 kts 89°
2026-05-07 16:53 36.07828 -115.12988 2074 ft 28 kts 91°
2026-05-07 16:54 36.07831 -115.12783 2068 ft 22 kts 89°
2026-05-07 16:54 36.07828 -115.12641 2063 ft 10 kts 94°
2026-05-07 16:54 36.07826 -115.12559 2060 ft 10 kts 89°
2026-05-07 16:54 36.07828 -115.12450 2057 ft 13 kts 89°
2026-05-07 16:55 36.07830 -115.12329 2055 ft 15 kts 89°
2026-05-07 16:55 36.07790 -115.12208 2051 ft 18 kts 134°
2026-05-07 16:55 36.07720 -115.12127 2050 ft 13 kts 159°
2026-05-07 16:55 36.07644 -115.12171 2049 ft 13 kts 254°
2026-05-07 16:56 36.07644 -115.12330 2052 ft 39 kts 270°
2026-05-07 16:56 36.07640 -115.12941 2075 ft 100 kts 270°
2026-05-07 16:56 36.07636 -115.15420 2133 ft 181 kts 270°
2026-05-07 16:57 36.07638 -115.17005 2614 ft 188 kts 270°
2026-05-07 16:57 36.07638 -115.18619 3325 ft 187 kts 270°
2026-05-07 16:57 36.07638 -115.20230 3954 ft 189 kts 271°
2026-05-07 16:57 36.07639 -115.21927 4212 ft 208 kts 271°
2026-05-07 16:58 36.07641 -115.23800 4433 ft 226 kts 272°
2026-05-07 16:58 36.07656 -115.25780 4988 ft 232 kts 277°
2026-05-07 16:58 36.08210 -115.27625 5673 ft 231 kts 311°
2026-05-07 16:58 36.09553 -115.28765 6122 ft 244 kts 344°
2026-05-07 16:59 36.11226 -115.29253 6710 ft 253 kts 348°
2026-05-07 16:59 36.12977 -115.29627 7448 ft 257 kts 359°
2026-05-07 16:59 36.14730 -115.29231 8234 ft 260 kts 23°
2026-05-07 16:59 36.16244 -115.27969 8759 ft 277 kts 47°
2026-05-07 17:00 36.17289 -115.25918 9359 ft 287 kts 64°
2026-05-07 17:00 36.18027 -115.23589 10111 ft 292 kts 68°
2026-05-07 17:00 36.18763 -115.21227 10575 ft 307 kts 67°
2026-05-07 17:00 36.19429 -115.18614 10752 ft 331 kts 77°
2026-05-07 17:01 36.19624 -115.15692 11024 ft 350 kts 89°
2026-05-07 17:01 36.19623 -115.12681 11605 ft 355 kts 88°
2026-05-07 17:01 36.19622 -115.09606 12247 ft 358 kts 88°
2026-05-07 17:01 36.19622 -115.06518 12943 ft 361 kts 88°
2026-05-07 17:02 36.19622 -115.03394 13616 ft 363 kts 88°
2026-05-07 17:02 36.19624 -115.00254 14250 ft 366 kts 88°
2026-05-07 17:02 36.19624 -114.97088 14820 ft 369 kts 88°
2026-05-07 17:02 36.19623 -114.93895 15379 ft 372 kts 88°
2026-05-07 17:03 36.19622 -114.90677 15929 ft 375 kts 88°
2026-05-07 17:03 36.19618 -114.87438 16475 ft 378 kts 88°
2026-05-07 17:03 36.19612 -114.84183 17069 ft 379 kts 88°
2026-05-07 17:03 36.19607 -114.80903 17621 ft 382 kts 87°
2026-05-07 17:04 36.19602 -114.77616 18173 ft 385 kts 87°
2026-05-07 17:04 36.19594 -114.74283 18664 ft 388 kts 87°
2026-05-07 17:04 36.19585 -114.70935 19140 ft 391 kts 87°
2026-05-07 17:04 36.19575 -114.67547 19621 ft 394 kts 87°
2026-05-07 17:05 36.19567 -114.64136 20129 ft 397 kts 87°
2026-05-07 17:05 36.19559 -114.60695 20618 ft 401 kts 87°
2026-05-07 17:05 36.19552 -114.57243 21087 ft 404 kts 87°
2026-05-07 17:05 36.19544 -114.53753 21514 ft 406 kts 87°
2026-05-07 17:06 36.19537 -114.50248 21944 ft 409 kts 87°
2026-05-07 17:06 36.19531 -114.46707 22378 ft 412 kts 87°
2026-05-07 17:06 36.19520 -114.43144 22822 ft 415 kts 87°
2026-05-07 17:06 36.19505 -114.39550 23250 ft 418 kts 87°
2026-05-07 17:07 36.19486 -114.35937 23652 ft 421 kts 88°
2026-05-07 17:07 36.19466 -114.32300 24002 ft 424 kts 87°
2026-05-07 17:07 36.19445 -114.28644 24366 ft 426 kts 87°
2026-05-07 17:07 36.19437 -114.25020 24714 ft 427 kts 85°
2026-05-07 17:08 36.19736 -114.21372 25060 ft 427 kts 78°
2026-05-07 17:08 36.20178 -114.17718 25424 ft 429 kts 78°
2026-05-07 17:08 36.20621 -114.14061 25787 ft 430 kts 78°
2026-05-07 17:08 36.21063 -114.10383 26130 ft 433 kts 78°
2026-05-07 17:09 36.21505 -114.06680 26503 ft 435 kts 78°
2026-05-07 17:09 36.21949 -114.02958 26857 ft 437 kts 78°
2026-05-07 17:09 36.22395 -113.99226 27220 ft 440 kts 78°
2026-05-07 17:09 36.22841 -113.95483 27562 ft 442 kts 78°
2026-05-07 17:10 36.23287 -113.91700 27908 ft 444 kts 78°
2026-05-07 17:10 36.23731 -113.87908 28247 ft 446 kts 79°
2026-05-07 17:10 36.24173 -113.84102 28662 ft 446 kts 78°
2026-05-07 17:10 36.24612 -113.80299 29164 ft 445 kts 79°
2026-05-07 17:11 36.25047 -113.76517 29646 ft 443 kts 78°
2026-05-07 17:11 36.25483 -113.72739 30141 ft 442 kts 78°
2026-05-07 17:11 36.25920 -113.68970 30552 ft 441 kts 78°
2026-05-07 17:11 36.26353 -113.65219 30984 ft 440 kts 78°
2026-05-07 17:12 36.26784 -113.61477 31445 ft 438 kts 78°
2026-05-07 17:12 36.27214 -113.57744 31899 ft 436 kts 78°
2026-05-07 17:12 36.27641 -113.54045 32352 ft 434 kts 78°
2026-05-07 17:12 36.28061 -113.50382 32817 ft 432 kts 78°
2026-05-07 17:13 36.28481 -113.46697 33283 ft 430 kts 78°
2026-05-07 17:13 36.28896 -113.43038 33754 ft 428 kts 78°
2026-05-07 17:13 36.29311 -113.39385 34191 ft 426 kts 78°
2026-05-07 17:13 36.29723 -113.35753 34580 ft 425 kts 78°
2026-05-07 17:14 36.30130 -113.32135 34945 ft 423 kts 78°
2026-05-07 17:14 36.30536 -113.28523 35312 ft 422 kts 78°
2026-05-07 17:14 36.30947 -113.24935 35663 ft 420 kts 77°
2026-05-07 17:14 36.31646 -113.21453 36009 ft 414 kts 68°
2026-05-07 17:15 36.32732 -113.18170 36327 ft 412 kts 64°
2026-05-07 17:15 36.33887 -113.14920 36608 ft 411 kts 64°
2026-05-07 17:15 36.35031 -113.11681 36903 ft 410 kts 64°
2026-05-07 17:15 36.36180 -113.08419 37061 ft 412 kts 64°
2026-05-07 17:16 36.38497 -113.01827 37078 ft 421 kts 64°
2026-05-07 17:16 36.40839 -112.95152 37083 ft 422 kts 64°
2026-05-07 17:17 36.43179 -112.88484 37085 ft 422 kts 64°
2026-05-07 17:17 36.45516 -112.81792 37086 ft 422 kts 64°
2026-05-07 17:18 36.47846 -112.75097 37086 ft 423 kts 64°
2026-05-07 17:18 36.50178 -112.68391 37089 ft 423 kts 64°
2026-05-07 17:19 36.52510 -112.61677 37095 ft 424 kts 64°
2026-05-07 17:19 36.54835 -112.54974 37098 ft 424 kts 64°
2026-05-07 17:20 36.57165 -112.48242 37096 ft 424 kts 64°
2026-05-07 17:20 36.59495 -112.41485 37096 ft 425 kts 64°
2026-05-07 17:21 36.61820 -112.34723 37097 ft 425 kts 64°
2026-05-07 17:21 36.64145 -112.27946 37098 ft 426 kts 64°
2026-05-07 17:22 36.66469 -112.21151 37097 ft 426 kts 64°
2026-05-07 17:22 36.68789 -112.14369 37096 ft 426 kts 64°
2026-05-07 17:23 36.71106 -112.07589 37101 ft 426 kts 64°
2026-05-07 17:23 36.73424 -112.00783 37096 ft 427 kts 64°
2026-05-07 17:24 36.75742 -111.93961 37093 ft 427 kts 65°
2026-05-07 17:24 36.78054 -111.87145 37084 ft 427 kts 64°
2026-05-07 17:25 36.80361 -111.80301 37087 ft 427 kts 65°
2026-05-07 17:25 36.82661 -111.73458 37087 ft 428 kts 65°
2026-05-07 17:26 36.84976 -111.66594 37093 ft 429 kts 63°
2026-05-07 17:26 36.87905 -111.60144 37075 ft 426 kts 57°
2026-05-07 17:27 36.90943 -111.53784 37208 ft 427 kts 57°
2026-05-07 17:27 36.93985 -111.47408 37215 ft 427 kts 57°
2026-05-07 17:28 36.97017 -111.41025 37216 ft 427 kts 57°
2026-05-07 17:28 37.00033 -111.34665 37215 ft 428 kts 57°
2026-05-07 17:29 37.03061 -111.28264 37186 ft 428 kts 57°
2026-05-07 17:29 37.06093 -111.21847 37162 ft 428 kts 57°
2026-05-07 17:30 37.09117 -111.15426 37130 ft 428 kts 57°
2026-05-07 17:30 37.12140 -111.09014 37112 ft 428 kts 57°
2026-05-07 17:31 37.15164 -111.02585 37099 ft 429 kts 57°
2026-05-07 17:31 37.18190 -110.96125 37094 ft 430 kts 57°
2026-05-07 17:32 37.20697 -110.90758 37100 ft 430 kts 57°
2026-05-07 17:32 37.23717 -110.84279 37104 ft 430 kts 57°
2026-05-07 17:33 37.26746 -110.77789 37111 ft 431 kts 57°
2026-05-07 17:33 37.29778 -110.71280 37121 ft 432 kts 57°
2026-05-07 17:34 37.32808 -110.64752 37105 ft 432 kts 57°
2026-05-07 17:34 37.35593 -110.58747 37116 ft 432 kts 57°
2026-05-07 17:35 37.38525 -110.52387 37114 ft 432 kts 57°
2026-05-07 17:35 37.41530 -110.45885 37126 ft 432 kts 57°
2026-05-07 17:36 37.44540 -110.39348 37131 ft 433 kts 57°
2026-05-07 17:36 37.47560 -110.32784 37119 ft 433 kts 57°
2026-05-07 17:37 37.50582 -110.26205 37122 ft 433 kts 57°
2026-05-07 17:37 37.53587 -110.19632 37112 ft 433 kts 57°
2026-05-07 17:38 37.56588 -110.13059 37123 ft 433 kts 57°
2026-05-07 17:38 37.59596 -110.06473 37123 ft 433 kts 57°
2026-05-07 17:39 37.62599 -109.99894 37122 ft 434 kts 57°
2026-05-07 17:39 37.65583 -109.93318 37127 ft 434 kts 57°
2026-05-07 17:40 37.68581 -109.86701 37133 ft 434 kts 57°
2026-05-07 17:40 37.71582 -109.80066 37131 ft 435 kts 57°
2026-05-07 17:41 37.74589 -109.73428 37137 ft 435 kts 57°
2026-05-07 17:41 37.77580 -109.66787 37186 ft 435 kts 57°
2026-05-07 17:42 37.80573 -109.60117 37186 ft 436 kts 57°
2026-05-07 17:42 37.83441 -109.53710 37178 ft 436 kts 57°
2026-05-07 17:43 37.86237 -109.47479 37166 ft 436 kts 57°
2026-05-07 17:43 37.89126 -109.41028 37154 ft 436 kts 57°
2026-05-07 17:44 37.92131 -109.34284 37129 ft 437 kts 57°
2026-05-07 17:44 37.95102 -109.27604 37126 ft 438 kts 57°
2026-05-07 17:45 37.98088 -109.20878 37144 ft 438 kts 57°
2026-05-07 17:45 38.01074 -109.14146 37145 ft 438 kts 57°
2026-05-07 17:46 38.04068 -109.07386 37155 ft 439 kts 57°
2026-05-07 17:46 38.06992 -109.00759 37144 ft 440 kts 57°
2026-05-07 17:47 38.09978 -108.93972 37144 ft 441 kts 57°
2026-05-07 17:47 38.12825 -108.87061 37148 ft 443 kts 60°
2026-05-07 17:48 38.15534 -108.80013 37150 ft 443 kts 60°
2026-05-07 17:48 38.18240 -108.72973 37163 ft 444 kts 60°
2026-05-07 17:49 38.20991 -108.65921 37162 ft 445 kts 59°
2026-05-07 17:49 38.23750 -108.58875 37159 ft 445 kts 59°
2026-05-07 17:50 38.26506 -108.51818 37162 ft 446 kts 59°
2026-05-07 17:50 38.29257 -108.44744 37167 ft 446 kts 59°
2026-05-07 17:51 38.32015 -108.37648 37171 ft 447 kts 59°
2026-05-07 17:51 38.34772 -108.30525 37166 ft 448 kts 60°
2026-05-07 17:52 38.37495 -108.23468 37175 ft 448 kts 59°
2026-05-07 17:52 38.40058 -108.16812 37217 ft 448 kts 59°
2026-05-07 17:53 38.42808 -108.09659 37241 ft 449 kts 59°
2026-05-07 17:53 38.45313 -108.03122 37268 ft 449 kts 59°
2026-05-07 17:54 38.47969 -107.96164 37280 ft 449 kts 60°
2026-05-07 17:54 38.50685 -107.88966 37279 ft 449 kts 60°
2026-05-07 17:55 38.53387 -107.81777 37279 ft 449 kts 60°
2026-05-07 17:55 38.54742 -107.78174 37172 ft 449 kts 60°
2026-05-07 17:55 38.56099 -107.74572 37174 ft 449 kts 60°
2026-05-07 17:56 38.58790 -107.67416 37193 ft 450 kts 60°
2026-05-07 17:56 38.61491 -107.60203 37198 ft 450 kts 60°
2026-05-07 17:57 38.63754 -107.54142 37201 ft 451 kts 60°
2026-05-07 17:57 38.66899 -107.45732 37211 ft 451 kts 60°
2026-05-07 17:58 38.69635 -107.38508 37229 ft 451 kts 59°
2026-05-07 17:58 38.72380 -107.31268 37229 ft 452 kts 60°
2026-05-07 17:59 38.75116 -107.24030 37219 ft 451 kts 59°
2026-05-07 17:59 38.77845 -107.16788 37220 ft 451 kts 59°
2026-05-07 18:00 38.80565 -107.09534 37204 ft 451 kts 59°
2026-05-07 18:00 38.83270 -107.02285 37229 ft 451 kts 60°
2026-05-07 18:01 38.85983 -106.95016 37218 ft 452 kts 59°
2026-05-07 18:01 38.88709 -106.87723 37197 ft 453 kts 59°
2026-05-07 18:02 38.92786 -106.76751 37210 ft 454 kts 60°
2026-05-07 18:03 38.95486 -106.69469 37236 ft 454 kts 60°
2026-05-07 18:03 38.98189 -106.62120 37217 ft 455 kts 60°
2026-05-07 18:03 38.99548 -106.58432 36989 ft 457 kts 60°
2026-05-07 18:04 39.00913 -106.54729 36738 ft 458 kts 60°
2026-05-07 18:04 39.02276 -106.51018 36495 ft 458 kts 60°
2026-05-07 18:04 39.03631 -106.47312 36095 ft 458 kts 60°
2026-05-07 18:04 39.04989 -106.43592 35333 ft 462 kts 60°
2026-05-07 18:05 39.06356 -106.39845 34784 ft 461 kts 60°
2026-05-07 18:05 39.07711 -106.36131 34021 ft 464 kts 60°
2026-05-07 18:05 39.09086 -106.32347 32895 ft 461 kts 60°
2026-05-07 18:05 39.10426 -106.28655 31913 ft 458 kts 59°
2026-05-07 18:06 39.11770 -106.24947 31064 ft 458 kts 60°
2026-05-07 18:06 39.13123 -106.21218 30292 ft 461 kts 60°
2026-05-07 18:06 39.14457 -106.17519 29550 ft 449 kts 60°
2026-05-07 18:06 39.15747 -106.13923 28905 ft 436 kts 60°
2026-05-07 18:07 39.17020 -106.10382 28324 ft 437 kts 60°
2026-05-07 18:07 39.18326 -106.06768 27715 ft 439 kts 60°
2026-05-07 18:07 39.19595 -106.03254 27126 ft 436 kts 60°
2026-05-07 18:07 39.20870 -105.99709 26530 ft 434 kts 60°
2026-05-07 18:08 39.22135 -105.96177 25936 ft 433 kts 60°
2026-05-07 18:08 39.23396 -105.92651 25311 ft 432 kts 60°
2026-05-07 18:08 39.24651 -105.89141 24759 ft 429 kts 60°
2026-05-07 18:08 39.25901 -105.85657 24232 ft 428 kts 60°
2026-05-07 18:09 39.27146 -105.82198 23777 ft 424 kts 60°
2026-05-07 18:09 39.28398 -105.78745 23047 ft 425 kts 60°
2026-05-07 18:09 39.29638 -105.75321 22827 ft 414 kts 60°
2026-05-07 18:09 39.30829 -105.71998 22666 ft 402 kts 60°
2026-05-07 18:10 39.31988 -105.68749 22338 ft 396 kts 60°
2026-05-07 18:10 39.33139 -105.65535 21906 ft 392 kts 60°
2026-05-07 18:10 39.34293 -105.62361 21505 ft 388 kts 61°
2026-05-07 18:10 39.35437 -105.59238 21147 ft 382 kts 61°
2026-05-07 18:11 39.36563 -105.56166 20524 ft 375 kts 61°
2026-05-07 18:11 39.37298 -105.54162 20014 ft 372 kts 61°
2026-05-07 18:11 39.38772 -105.50136 19383 ft 366 kts 62°
2026-05-07 18:11 39.39841 -105.47202 19238 ft 354 kts 62°
2026-05-07 18:12 39.40854 -105.44352 19091 ft 346 kts 65°
2026-05-07 18:12 39.41519 -105.41415 18821 ft 345 kts 77°
2026-05-07 18:12 39.41718 -105.38329 18487 ft 344 kts 88°
2026-05-07 18:12 39.41725 -105.35249 18086 ft 342 kts 88°
2026-05-07 18:13 39.41737 -105.32152 17671 ft 341 kts 87°
2026-05-07 18:13 39.41753 -105.29090 17284 ft 339 kts 87°
2026-05-07 18:13 39.41770 -105.26078 16786 ft 337 kts 88°
2026-05-07 18:13 39.41788 -105.23049 16109 ft 335 kts 88°
2026-05-07 18:14 39.41804 -105.20051 15580 ft 334 kts 88°
2026-05-07 18:14 39.41820 -105.17035 15265 ft 332 kts 88°
2026-05-07 18:14 39.41836 -105.14097 14925 ft 329 kts 88°
2026-05-07 18:14 39.41851 -105.11101 14599 ft 328 kts 88°
2026-05-07 18:15 39.41862 -105.08178 14285 ft 326 kts 88°
2026-05-07 18:15 39.41872 -105.05265 13981 ft 325 kts 88°
2026-05-07 18:15 39.41879 -105.02366 13764 ft 319 kts 88°
2026-05-07 18:15 39.41883 -104.99560 13579 ft 304 kts 88°
2026-05-07 18:16 39.41884 -104.96956 13380 ft 290 kts 88°
2026-05-07 18:16 39.41899 -104.94377 12967 ft 284 kts 84°
2026-05-07 18:16 39.42111 -104.91938 12596 ft 282 kts 81°
2026-05-07 18:16 39.42340 -104.89424 12319 ft 280 kts 81°
2026-05-07 18:17 39.42562 -104.86933 12029 ft 279 kts 81°
2026-05-07 18:17 39.42781 -104.84453 11725 ft 278 kts 81°
2026-05-07 18:17 39.42993 -104.82045 11448 ft 276 kts 82°
2026-05-07 18:17 39.43208 -104.79604 11144 ft 276 kts 81°
2026-05-07 18:18 39.43426 -104.77153 11003 ft 274 kts 79°
2026-05-07 18:18 39.43692 -104.75661 11010 ft 273 kts 69°
2026-05-07 18:18 39.44462 -104.73440 11019 ft 270 kts 54°
2026-05-07 18:18 39.46114 -104.71098 11019 ft 264 kts 31°
2026-05-07 18:19 39.47130 -104.70321 11022 ft 261 kts 22°
2026-05-07 18:19 39.48781 -104.69414 11019 ft 258 kts 11°
2026-05-07 18:19 39.50529 -104.69123 11022 ft 254 kts 356°
2026-05-07 18:19 39.52302 -104.69111 11024 ft 255 kts 357°
2026-05-07 18:20 39.54071 -104.69093 11013 ft 255 kts 356°
2026-05-07 18:20 39.55838 -104.69073 10831 ft 254 kts 356°
2026-05-07 18:20 39.57619 -104.69053 10791 ft 254 kts 356°
2026-05-07 18:20 39.59376 -104.69033 10560 ft 254 kts 356°
2026-05-07 18:21 39.61142 -104.69012 10255 ft 254 kts 356°
2026-05-07 18:21 39.62925 -104.68992 9934 ft 255 kts 356°
2026-05-07 18:21 39.64693 -104.68971 9584 ft 255 kts 356°
2026-05-07 18:21 39.66468 -104.68951 9240 ft 255 kts 356°
2026-05-07 18:22 39.68247 -104.68930 8889 ft 255 kts 357°
2026-05-07 18:22 39.69421 -104.68916 8669 ft 254 kts 356°
2026-05-07 18:22 39.71791 -104.68889 8212 ft 255 kts 356°
2026-05-07 18:22 39.73540 -104.68869 7895 ft 254 kts 356°
2026-05-07 18:23 39.75311 -104.68848 7566 ft 254 kts 357°
2026-05-07 18:23 39.77038 -104.68827 7246 ft 246 kts 357°
2026-05-07 18:23 39.78704 -104.68806 6942 ft 233 kts 356°
2026-05-07 18:23 39.80278 -104.68787 6666 ft 217 kts 356°
2026-05-07 18:24 39.81723 -104.68769 6401 ft 199 kts 356°
2026-05-07 18:24 39.83042 -104.68740 6059 ft 181 kts 355°
2026-05-07 18:24 39.84258 -104.68738 5903 ft 172 kts 356°
2026-05-07 18:24 39.85445 -104.68729 5616 ft 169 kts 359°
2026-05-07 18:25 39.86589 -104.68711 5397 ft 162 kts 354°
2026-05-07 18:25 39.87624 -104.68720 5362 ft 126 kts
2026-05-07 18:25 39.88319 -104.68704 5361 ft 77 kts
2026-05-07 18:25 39.88591 -104.68571 5360 ft 16 kts 78°
2026-05-07 18:26 39.88542 -104.68481 5360 ft 15 kts 176°
2026-05-07 18:26 39.88432 -104.68482 5360 ft 16 kts 180°
2026-05-07 18:26 39.88316 -104.68484 5360 ft 17 kts 180°
2026-05-07 18:26 39.88195 -104.68485 5360 ft 18 kts 180°
2026-05-07 18:27 39.88069 -104.68485 5361 ft 18 kts 181°
2026-05-07 18:27 39.87937 -104.68489 5361 ft 19 kts 181°